E0445 Weather Reports


Display with metric or nautical units.
time (UTC)temp
F
wind
direction
speed
MPH
gust
MPH
rain 1hr
in
rain 24hr
in
rain mn
in
humidity
%
barometer
mb
20260905032519 66 0 0.0 0.0 0.00 0.01 0.00 87 1013.6
20260905032017 66 0 0.0 1.0 0.00 0.01 0.00 87 1013.5
20260905031019 66 0 0.0 0.0 0.00 0.01 0.00 86 1013.6
20260905030517 66 0 0.0 0.0 0.00 0.01 0.00 86 1013.4
20260905030049 66 0 0.0 1.0 0.00 0.01 0.00 86 1013.5
20260905025519 67 0 0.0 4.0 0.00 0.01 0.00 87 1013.4
20260905025018 66 0 0.0 4.0 0.00 0.01 0.00 87 1013.5
20260905024537 66 15 0.0 1.0 0.00 0.01 0.00 88 1013.5
20260905024019 67 0 0.0 0.0 0.00 0.01 0.00 88 1013.6
20260905023519 67 0 0.0 0.0 0.00 0.01 0.00 88 1013.6
20260905022522 67 0 0.0 0.0 0.00 0.01 0.00 87 1013.6
20260905022022 67 0 0.0 0.0 0.00 0.01 0.00 87 1013.6
20260905021016 67 0 0.0 0.0 0.00 0.01 0.00 87 1013.7
20260905020520 0 0.0 0.0 0.00 0.01 0.00 1013.6
20260905020039 0 0.0 0.0 0.00 0.01 0.00 1013.7
20260905015519 0 0.0 0.0 0.00 0.01 0.00 1013.7
20260905015018 0 0.0 0.0 0.00 0.01 0.00 1013.7
20260905014021 0 0.0 0.0 0.00 0.01 0.00 1013.7
20260905013520 0 0.0 0.0 0.00 0.01 0.00 1013.7
20260905012518 0 0.0 0.0 0.00 0.01 0.00 1013.8
20260905012018 0 0.0 0.0 0.00 0.01 0.00 1013.8
20260905011018 0 0.0 0.0 0.00 0.01 0.00 1013.9
20260905010517 0 0.0 0.0 0.00 0.01 0.00 1013.8
20260905010041 0 0.0 0.0 0.00 0.01 0.00 1013.9
20260905005520 0 0.0 0.0 0.00 0.01 0.00 1013.9
20260905005023 0 0.0 0.0 0.00 0.01 0.00 1013.9
20260905004020 0 0.0 0.0 0.00 0.01 0.00 1013.7
20260905003520 0 0.0 0.0 0.00 0.01 0.00 1013.6
20260905002519 0 0.0 0.0 0.00 0.01 0.00 1013.5
20260905002018 0 0.0 0.0 0.00 0.01 0.00 1013.4
20260905001018 0 0.0 0.0 0.00 0.01 0.00 1013.4
20260905000518 0 0.0 0.0 0.00 0.01 0.00 1013.1
20260905000034 0 0.0 0.0 0.00 0.01 0.00 1013.3
20260904235518 0 0.0 0.0 0.00 0.01 0.00 1013.3
20260904235015 0 0.0 0.0 0.00 0.01 0.00 1013.2
20260904234024 0 0.0 0.0 0.00 0.01 0.00 1013.3
20260904233520 0 0.0 0.0 0.00 0.01 0.00 1013.0
20260904232519 0 0.0 0.0 0.00 0.01 0.00 1013.2
20260904232023 0 0.0 0.0 0.00 0.01 0.00 1013.1
20260904231018 0 1.0 0.0 0.00 0.01 0.00 1013.2
20260904230519 71 1.0 3.0 0.00 0.01 0.00 80 1013.3
20260904225516 72 350 1.0 3.0 0.00 0.01 0.00 77 1013.3
20260904225018 73 350 1.0 3.0 0.00 0.01 0.00 76 1013.3
20260904224016 74 352 1.0 4.0 0.00 0.01 0.00 73 1013.5
20260904223519 74 350 1.0 3.0 0.00 0.01 0.00 73 1013.5
20260904222520 75 345 2.0 3.0 0.00 0.01 0.00 73 1013.6
20260904222021 75 171 1.0 3.0 0.00 0.01 0.00 71 1013.5
20260904221017 74 0 0.0 3.0 0.00 0.01 0.00 76 1013.5
20260904220519 74 57 1.0 4.0 0.00 0.01 0.00 73 1013.5
20260904215517 74 319 2.0 6.0 0.00 0.01 0.00 70 1013.3
20260904215016 75 322 2.0 6.0 0.00 0.01 0.00 70 1013.4
20260904214537 76 287 2.0 7.0 0.00 0.01 0.00 70 1013.3
20260904214019 76 304 2.0 8.0 0.00 0.01 0.00 69 1013.3
20260904213520 76 293 2.0 8.0 0.00 0.01 0.00 69 1013.3
20260904212519 76 352 1.0 5.0 0.00 0.01 0.00 72 1013.2
20260904212022 75 20 2.0 5.0 0.00 0.01 0.00 71 1013.3
20260904211535 75 320 2.0 6.0 0.00 0.01 0.00 71 1013.3
20260904210521 76 5 2.0 5.0 0.00 0.01 0.00 70 1013.3
20260904210037 76 302 2.0 11.0 0.00 0.01 0.00 71 1013.4
20260904205518 76 331 4.0 11.0 0.00 0.01 0.00 67 1013.5
20260904205020 77 331 3.0 9.0 0.00 0.01 0.00 68 1013.4
20260904204018 77 294 4.0 8.0 0.00 0.01 0.00 68 1013.3
20260904203519 77 355 4.0 9.0 0.00 0.01 0.00 71 1013.4
20260904202519 76 304 4.0 7.0 0.00 0.01 0.00 69 1013.4
20260904202019 76 338 3.0 10.0 0.00 0.01 0.00 66 1013.5
20260904201538 77 3.0 6.0 0.00 0.01 0.00 67 1013.5
20260904201016 77 12 3.0 6.0 0.00 0.01 0.00 67 1013.6
20260904200520 77 360 3.0 6.0 0.00 0.01 0.00 68 1013.7
20260904200050 76 18 2.0 6.0 0.00 0.01 0.00 70 1013.7
20260904195524 76 40 2.0 6.0 0.00 0.01 0.00 71 1013.7
20260904195019 77 325 2.0 9.0 0.00 0.01 0.00 68 1013.7
20260904194020 76 351 5.0 10.0 0.00 0.01 0.00 68 1014.0
20260904193517 76 312 4.0 11.0 0.00 0.01 0.00 70 1014.0
20260904193041 77 56 3.0 13.0 0.00 0.01 0.00 68 1014.0
20260904192519 76 297 7.0 13.0 0.00 0.01 0.00 67 1014.1
20260904192019 76 238 3.0 12.0 0.00 0.01 0.00 68 1014.0
20260904191540 76 250 6.0 12.0 0.00 0.01 0.00 66 1014.2
20260904191016 76 319 5.0 11.0 0.00 0.01 0.00 71 1014.2
20260904190516 76 277 5.0 10.0 0.00 0.01 0.00 67 1014.1
20260904185520 75 271 6.0 12.0 0.00 0.01 0.00 69 1014.3
20260904185019 75 294 3.0 9.0 0.00 0.01 0.00 69 1014.2
20260904184532 76 291 4.0 9.0 0.00 0.01 0.00 69 1014.3
20260904184020 76 290 4.0 9.0 0.00 0.01 0.00 68 1014.4
20260904183519 76 323 4.0 9.0 0.00 0.01 0.00 67 1014.5
20260904182516 77 286 4.0 9.0 0.00 0.01 0.00 69 1014.5
20260904182024 76 292 4.0 12.0 0.00 0.01 0.00 67 1014.4
20260904181539 76 21 4.0 12.0 0.00 0.01 0.00 66 1014.6
20260904181020 77 309 7.0 12.0 0.00 0.01 0.00 64 1014.6
20260904180520 77 290 5.0 14.0 0.00 0.01 0.00 68 1014.6
20260904180036 76 305 4.0 16.0 0.00 0.01 0.00 68 1014.6
20260904175520 76 269 7.0 16.0 0.00 0.01 0.00 68 1014.7
20260904175017 77 261 8.0 16.0 0.00 0.01 0.00 66 1014.6
20260904174016 76 329 4.0 12.0 0.00 0.01 0.00 69 1014.7
20260904173518 76 333 5.0 12.0 0.00 0.01 0.00 69 1014.8
20260904172521 76 352 7.0 14.0 0.00 0.01 0.00 69 1014.9
20260904172016 75 299 7.0 14.0 0.00 0.01 0.00 69 1014.7
20260904171550 75 314 6.0 12.0 0.00 0.01 0.00 69 1014.8
20260904171018 76 316 5.0 15.0 0.00 0.01 0.00 70 1014.8
20260904170518 76 331 8.0 15.0 0.00 0.01 0.00 70 1014.9
20260904170035 76 271 6.0 12.0 0.00 0.01 0.00 70 1014.8
20260904165518 75 329 3.0 13.0 0.00 0.01 0.00 68 1014.9
20260904165018 75 238 7.0 16.0 0.00 0.01 0.00 68 1014.7
20260904164021 75 317 4.0 11.0 0.00 0.01 0.00 69 1014.8
20260904163518 75 303 4.0 12.0 0.00 0.01 0.00 69 1014.8
20260904163034 75 319 4.0 12.0 0.00 0.01 0.00 69 1014.9
20260904162518 75 317 5.0 12.0 0.00 0.01 0.00 71 1015.0
20260904162015 75 290 4.0 12.0 0.00 0.01 0.00 68 1014.9
20260904161545 76 309 3.0 12.0 0.00 0.01 0.00 69 1014.9
20260904161018 75 242 3.0 12.0 0.00 0.01 0.00 69 1014.8
20260904160521 75 313 3.0 9.0 0.00 0.01 0.00 70 1014.9
20260904160034 75 316 2.0 10.0 0.00 0.01 0.00 73 1015.0
20260904155520 75 355 4.0 10.0 0.00 0.01 0.00 71 1015.0
20260904155020 75 288 5.0 9.0 0.00 0.01 0.00 73 1015.2
20260904154018 74 342 5.0 10.0 0.00 0.01 0.00 70 1015.1
20260904153523 74 346 5.0 9.0 0.00 0.01 0.00 69 1015.1
20260904153054 74 319 4.0 12.0 0.00 0.01 0.00 69 1015.3
20260904152521 75 309 6.0 12.0 0.00 0.01 0.00 68 1015.4
20260904152021 75 307 4.0 11.0 0.00 0.01 0.00 71 1015.1
20260904151544 75 304 3.0 9.0 0.00 0.01 0.00 70 1015.1
20260904151021 74 19 3.0 10.0 0.00 0.01 0.00 70 1015.1
20260904150520 74 330 5.0 10.0 0.00 0.01 0.00 70 1015.2
20260904145519 74 351 4.0 10.0 0.00 0.01 0.00 69 1015.1
20260904145016 73 334 5.0 11.0 0.00 0.01 0.00 68 1015.3
20260904144536 73 300 4.0 11.0 0.00 0.01 0.00 67 1015.2
20260904144018 73 341 5.0 10.0 0.00 0.01 0.00 68 1015.2
20260904143517 73 316 3.0 11.0 0.00 0.01 0.00 68 1015.3
20260904143035 73 317 4.0 11.0 0.00 0.01 0.00 69 1015.4
20260904142521 73 292 6.0 12.0 0.00 0.01 0.00 69 1015.4
20260904142022 72 347 5.0 12.0 0.00 0.01 0.00 70 1015.4
20260904141537 72 44 5.0 11.0 0.00 0.01 0.00 71 1015.4
20260904141019 72 334 3.0 9.0 0.00 0.01 0.00 74 1015.3
20260904140520 72 327 3.0 9.0 0.00 0.01 0.00 76 1015.2
20260904135519 72 342 3.0 9.0 0.00 0.01 0.00 80 1015.2
20260904135018 71 317 3.0 9.0 0.00 0.01 0.00 81 1015.1
20260904134538 71 355 2.0 9.0 0.00 0.01 0.00 80 1015.0
20260904134021 71 285 3.0 9.0 0.00 0.01 0.00 79 1014.9
20260904133518 71 284 3.0 8.0 0.00 0.01 0.00 81 1014.8
20260904133037 70 360 3.0 8.0 0.00 0.01 0.00 80 1014.8
20260904132522 70 319 3.0 9.0 0.00 0.01 0.00 82 1014.9
20260904132021 70 308 4.0 9.0 0.00 0.01 0.00 80 1014.9
20260904131017 69 355 2.0 8.0 0.00 0.01 0.00 83 1015.1
20260904130523 69 317 3.0 7.0 0.00 0.01 0.00 83 1015.0
20260904125517 69 336 2.0 8.0 0.00 0.01 0.00 85 1015.1
20260904125019 69 11 2.0 8.0 0.00 0.01 0.00 87 1015.1
20260904124536 69 29 3.0 8.0 0.00 0.01 0.00 90 1015.1
20260904124016 69 0 2.0 7.0 0.00 0.01 0.00 93 1015.2
20260904123516 69 309 2.0 7.0 0.00 0.01 0.00 95 1015.0
20260904123037 68 282 1.0 5.0 0.00 0.01 0.00 96 1015.0
20260904122518 68 346 2.0 5.0 0.00 0.01 0.00 97 1015.0
20260904122018 68 313 2.0 5.0 0.00 0.01 0.00 98 1014.9
20260904121533 68 303 1.0 3.0 0.00 0.01 0.00 99 1015.0
20260904121020 67 0 1.0 3.0 0.00 0.01 0.00 99 1014.9
20260904120519 67 336 0.0 3.0 0.00 0.01 0.00 99 1014.9
20260904115518 67 34 0.0 1.0 0.00 0.01 0.00 99 1014.9
20260904115019 67 0 0.0 0.0 0.00 0.01 0.00 99 1014.8
20260904114534 67 0 0.0 0.0 0.00 0.01 0.00 99 1014.9
20260904114018 67 0 0.0 1.0 0.00 0.01 0.00 99 1014.9
20260904113518 67 0 0.0 2.0 0.00 0.01 0.00 99 1014.9
20260904113043 67 0 0.0 2.0 0.00 0.01 0.00 99 1014.8
20260904112522 67 337 1.0 2.0 0.00 0.01 0.00 99 1014.9
20260904112020 67 336 0.0 1.0 0.00 0.01 0.00 99 1014.8
20260904111537 67 0 0.0 6.0 0.00 0.01 0.00 99 1014.6
20260904111020 67 0 1.0 6.0 0.00 0.01 0.00 99 1014.6
20260904110520 67 279 2.0 5.0 0.00 0.01 0.00 99 1014.8
20260904105518 67 298 1.0 3.0 0.00 0.01 0.00 99 1014.8
20260904105016 66 0 0.0 1.0 0.00 0.01 0.00 99 1014.6
20260904104021 66 0 0.0 0.0 0.00 0.01 0.00 98 1014.3
20260904103517 66 0 0.0 0.0 0.00 0.01 0.00 98 1014.3
20260904102520 67 0 0.0 0.0 0.00 0.01 0.00 98 1014.3
20260904102021 67 0 0.0 0.0 0.00 0.01 0.00 98 1014.2
20260904101025 67 0 0.0 0.0 0.00 0.01 0.00 98 1014.0
20260904100518 67 0 0.0 0.0 0.00 0.01 0.00 98 1014.1
20260904095517 68 0 0.0 0.0 0.00 0.01 0.00 98 1014.2
20260904094020 68 0 0.0 0.0 0.00 0.01 0.00 98 1014.2
20260904093518 68 0 0.0 0.0 0.00 0.01 0.00 98 1014.1
20260904092521 68 0 0.0 0.0 0.00 0.01 0.00 99 1014.1
20260904092020 68 0 0.0 0.0 0.00 0.01 0.00 99 1014.0
20260904091017 68 0 0.0 0.0 0.00 0.01 0.00 99 1013.9
20260904090518 68 0 0.0 0.0 0.00 0.01 0.00 99 1013.9
20260904085019 68 0 0.0 0.0 0.00 0.01 0.00 98 1013.7
20260904084018 68 0 0.0 0.0 0.00 0.01 0.00 99 1013.7
20260904083519 68 0 0.0 0.0 0.00 0.01 0.00 99 1013.7
20260904082517 68 0 0.0 0.0 0.00 0.01 0.00 98 1013.8
20260904081023 68 0 0.0 0.0 0.00 0.01 0.00 98 1013.6
20260904080523 68 0 0.0 0.0 0.00 0.01 0.00 98 1013.6
20260904080127 68 0 0.0 1.0 0.00 0.01 0.00 98 1013.6
20260904075518 68 0 0.0 1.0 0.00 0.01 0.00 98 1013.4
20260904075018 68 0 0.0 1.0 0.00 0.01 0.00 99 1013.4
20260904074016 68 0 0.0 0.0 0.00 0.01 0.00 99 1013.4
20260904073519 68 0 0.0 0.0 0.00 0.01 0.00 99 1013.3
20260904073047 68 0 0.0 0.0 0.00 0.01 0.00 99 1013.3
20260904072517 68 0 0.0 0.0 0.00 0.01 0.00 99 1013.3
20260904072019 68 0 0.0 0.0 0.00 0.01 0.00 99 1013.1
20260904070521 68 0 0.0 0.0 0.00 0.01 0.00 99 1013.3
20260904065523 68 0 0.0 0.0 0.00 0.01 0.00 99 1013.2
20260904065018 68 0 0.0 0.0 0.00 0.01 0.00 99 1013.1
20260904064021 67 0 0.0 0.0 0.00 0.01 0.00 98 1013.2
20260904063517 67 0 0.0 0.0 0.00 0.01 0.00 98 1013.2
20260904063039 67 0 0.0 0.0 0.00 0.01 0.00 98 1013.1
20260904062518 67 0 0.0 0.0 0.00 0.01 0.00 98 1013.1
20260904062018 67 0 0.0 0.0 0.00 0.01 0.00 98 1013.1
20260904060521 67 0 0.0 0.0 0.00 0.01 0.00 98 1013.2
20260904055521 67 0 0.0 0.0 0.00 0.01 0.00 98 1013.2
20260904055020 68 0 0.0 2.0 0.00 0.01 0.00 98 1013.3
20260904054020 68 0 0.0 2.0 0.00 0.01 0.00 98 1013.5
20260904053524 68 0 0.0 0.0 0.00 0.01 0.00 98 1013.4
20260904052019 68 0 0.0 2.0 0.00 0.01 0.00 98 1013.7
20260904051019 68 0 0.0 2.0 0.00 0.01 0.00 98 1013.7
20260904050520 68 0 0.0 2.0 0.00 0.01 0.00 98 1013.8
20260904045518 68 360 0.0 3.0 0.00 0.01 0.00 98 1014.0
20260904045019 68 294 0.0 3.0 0.00 0.01 0.00 98 1014.0
20260904044018 68 294 1.0 5.0 0.00 0.01 0.00 98 1013.7
20260904043520 68 296 1.0 5.0 0.00 0.01 0.00 98 1013.7
20260904043043 68 53 0.0 2.0 0.00 0.01 0.00 98 1013.6
20260904042518 68 0 0.0 2.0 0.00 0.01 0.00 98 1013.5
20260904041022 68 0 0.0 2.0 0.01 0.01 0.00 98 1013.6
20260904040520 68 0 0.0 2.0 0.01 0.01 0.00 98 1013.7
20260904035523 68 63 0.0 2.0 0.01 0.01 0.01 98 1013.7
20260904035020 68 0 0.0 2.0 0.01 0.01 0.01 98 1013.8
20260904034020 68 0 0.0 0.0 0.01 0.01 0.01 98 1013.6
20260904033518 68 0 0.0 0.0 0.01 0.01 0.01 98 1013.8